GW0795 Weather Reports


time (UTC)temp
C
wind
direction
speed
KPH
gust
KPH
rain 1hr
cm
rain 24hr
cm
rain mn
cm
humidity
%
barometer
mb
20260504184505 20 178 1.6 8.0 0.00 0.00 0.00 60 1011.7
20260504184004 20 244 3.2 9.7 0.00 0.00 0.00 59 1011.8
20260504183502 20 194 1.6 9.7 0.00 0.00 0.00 61 1011.7
20260504183005 19 208 1.6 11.3 0.00 0.00 0.00 59 1011.7
20260504182504 19 165 4.8 11.3 0.00 0.00 0.00 60 1011.8
20260504182008 19 140 3.2 8.0 0.00 0.00 0.00 59 1011.8
20260504181510 20 223 1.6 8.0 0.00 0.00 0.00 60 1011.8
20260504181004 19 194 3.2 9.7 0.00 0.00 0.00 61 1011.8
20260504180509 19 130 4.8 9.7 0.00 0.00 0.00 58 1011.8
20260504180014 18 187 1.6 6.4 0.00 0.00 0.00 60 1011.9
20260504175507 19 256 1.6 12.9 0.00 0.00 0.00 59 1011.9
20260504175007 18 223 1.6 12.9 0.00 0.00 0.00 63 1011.8
20260504174504 17 200 4.8 11.3 0.00 0.00 0.00 63 1011.8
20260504174002 17 219 1.6 11.3 0.00 0.00 0.00 64 1011.8
20260504173504 18 208 3.2 11.3 0.00 0.00 0.00 61 1011.8
20260504173002 18 175 1.6 9.7 0.00 0.00 0.00 63 1011.7
20260504172504 17 203 1.6 12.9 0.00 0.00 0.00 65 1011.6
20260504172006 17 169 4.8 12.9 0.00 0.00 0.00 66 1011.6
20260504171528 17 150 3.2 12.9 0.00 0.00 0.00 64 1011.7
20260504171007 17 182 4.8 14.5 0.00 0.00 0.00 64 1011.6
20260504170506 16 144 4.8 14.5 0.00 0.00 0.00 64 1011.6
20260504151004 15 163 1.6 8.0 0.00 0.00 0.00 70 1010.9
20260504150504 15 178 3.2 6.4 0.00 0.00 0.00 71 1010.9
20260504141011 12 27 0.0 0.0 0.00 0.00 0.00 80 1010.5
20260504140508 12 27 0.0 0.0 0.00 0.00 0.00 81 1010.6
20260504130511 11 62 0.0 0.0 0.00 0.00 0.00 82 1009.9
20260504110509 11 84 0.0 0.0 0.00 0.00 0.00 78 1009.7
20260504100504 12 84 0.0 0.0 0.00 0.00 0.00 73 1009.7
20260504082004 14 84 0.0 0.0 0.00 0.00 0.00 66 1009.6
20260504081523 14 84 0.0 0.0 0.00 0.00 0.00 66 1009.6
20260504081004 14 84 0.0 0.0 0.00 0.00 0.00 65 1009.6
20260504080503 14 84 0.0 0.0 0.00 0.00 0.00 66 1009.7
20260504050507 20 43 0.0 0.0 0.00 0.00 0.00 47 1009.6
20260504045504 20 43 0.0 0.0 0.00 0.00 0.00 45 1009.7
20260504045006 20 43 0.0 0.0 0.00 0.00 0.00 45 1009.7
20260504044523 20 43 0.0 0.0 0.00 0.00 0.00 45 1009.7
20260504044009 20 43 0.0 0.0 0.00 0.00 0.00 44 1009.8
20260504043507 20 43 0.0 0.0 0.00 0.00 0.00 43 1009.6
20260504043018 20 74 0.0 1.6 0.00 0.00 0.00 43 1009.6
20260504042507 20 77 0.0 4.8 0.00 0.00 0.00 44 1009.6
20260504042007 20 14 1.6 4.8 0.00 0.00 0.00 44 1009.5
20260504041528 20 90 0.0 3.2 0.00 0.00 0.00 45 1009.5
20260504041008 21 53 0.0 3.2 0.00 0.00 0.00 44 1009.5
20260504040507 21 34 0.0 3.2 0.00 0.00 0.00 44 1009.5
20260504040025 21 61 1.6 4.8 0.00 0.00 0.00 44 1009.5
20260504035508 21 45 1.6 4.8 0.00 0.00 0.00 44 1009.4
20260504035008 21 5 1.6 4.8 0.00 0.00 0.00 46 1009.4
20260504034529 21 13 0.0 3.2 0.00 0.00 0.00 46 1009.3
20260504034004 21 16 0.0 3.2 0.00 0.00 0.00 46 1009.3
20260504033508 21 332 0.0 3.2 0.00 0.00 0.00 46 1009.2
20260504033017 21 332 0.0 4.8 0.00 0.00 0.00 44 1009.3
20260504032507 21 327 0.0 8.0 0.00 0.00 0.00 43 1009.3
20260504032012 22 5 3.2 12.9 0.00 0.00 0.00 42 1009.3
20260504031522 22 346 1.6 12.9 0.00 0.00 0.00 43 1009.3
20260504031007 22 15 3.2 11.3 0.00 0.00 0.00 42 1009.3
20260504030510 22 352 4.8 6.4 0.00 0.00 0.00 42 1009.2
20260504030037 22 34 1.6 9.7 0.00 0.00 0.00 42 1009.0
20260504025509 22 9 3.2 9.7 0.00 0.00 0.00 42 1009.0
20260504025010 22 346 3.2 11.3 0.00 0.00 0.00 41 1009.1
20260504024525 23 34 4.8 11.3 0.00 0.00 0.00 40 1009.0
20260504024006 23 342 3.2 8.0 0.00 0.00 0.00 40 1009.0
20260504023506 23 9 3.2 16.1 0.00 0.00 0.00 39 1009.0
20260504023031 23 350 4.8 17.7 0.00 0.00 0.00 39 1009.0
20260504022505 23 341 4.8 17.7 0.00 0.00 0.00 39 1009.0
20260504022007 23 352 3.2 16.1 0.00 0.00 0.00 40 1009.0
20260504021517 24 5 4.8 12.9 0.00 0.00 0.00 40 1009.0
20260504021008 24 347 1.6 12.9 0.00 0.00 0.00 40 1009.0
20260504020508 24 59 3.2 11.3 0.00 0.00 0.00 40 1009.0
20260504020022 24 5 1.6 14.5 0.00 0.00 0.00 40 1009.0
20260504015508 24 321 4.8 16.1 0.00 0.00 0.00 39 1009.1
20260504015011 25 319 6.4 16.1 0.00 0.00 0.00 39 1009.1
20260504014508 25 57 4.8 14.5 0.00 0.00 0.00 39 1009.2
20260504014003 25 307 3.2 12.9 0.00 0.00 0.00 39 1009.1
20260504013508 25 342 4.8 12.9 0.00 0.00 0.00 39 1009.1
20260504013010 25 332 4.8 12.9 0.00 0.00 0.00 38 1009.2
20260504012508 25 336 4.8 17.7 0.00 0.00 0.00 38 1009.2
20260504012001 25 352 4.8 17.7 0.00 0.00 0.00 39 1009.3
20260504011503 25 9 1.6 9.7 0.00 0.00 0.00 38 1009.4
20260504011000 25 306 3.2 9.7 0.00 0.00 0.00 39 1009.4
20260504010503 25 318 1.6 6.4 0.00 0.00 0.00 38 1009.4
20260504010003 25 342 1.6 12.9 0.00 0.00 0.00 38 1009.5
20260504005504 25 304 3.2 12.9 0.00 0.00 0.00 38 1009.5
20260504005004 25 342 4.8 11.3 0.00 0.00 0.00 38 1009.6
20260504004503 25 279 3.2 6.4 0.00 0.00 0.00 39 1009.7
20260504004006 26 333 3.2 8.0 0.00 0.00 0.00 39 1009.7
20260504003506 26 269 3.2 8.0 0.00 0.00 0.00 39 1009.8
20260504003008 26 275 3.2 12.9 0.00 0.00 0.00 38 1009.9
20260504002505 26 5 6.4 12.9 0.00 0.00 0.00 38 1009.9
20260504002004 26 254 3.2 11.3 0.00 0.00 0.00 37 1009.9
20260504001508 26 317 3.2 12.9 0.00 0.00 0.00 39 1010.0
20260504001004 26 209 6.4 12.9 0.00 0.00 0.00 37 1010.0
20260504000503 26 352 3.2 12.9 0.00 0.00 0.00 39 1010.1
20260504000004 26 287 1.6 12.9 0.00 0.00 0.00 39 1010.2
20260503235504 26 352 3.2 9.7 0.00 0.00 0.00 39 1010.2
20260503235004 26 342 3.2 11.3 0.00 0.00 0.00 40 1010.3
20260503234505 26 352 6.4 14.5 0.00 0.00 0.00 38 1010.3
20260503234003 26 298 3.2 14.5 0.00 0.00 0.00 38 1010.3
20260503233505 26 281 3.2 8.0 0.00 0.00 0.00 39 1010.4
20260503233006 26 291 3.2 12.9 0.00 0.00 0.00 38 1010.5
20260503232504 26 346 8.0 12.9 0.00 0.00 0.00 38 1010.6
20260503232004 26 319 4.8 14.5 0.00 0.00 0.00 38 1010.6
20260503231511 25 19 4.8 17.7 0.00 0.00 0.00 39 1010.6
20260503231008 25 50 6.4 17.7 0.00 0.00 0.00 39 1010.7
20260503230510 25 9 6.4 14.5 0.00 0.00 0.00 39 1010.8
20260503230012 25 284 4.8 16.1 0.00 0.00 0.00 40 1010.9
20260503225503 25 293 3.2 14.5 0.00 0.00 0.00 41 1010.9
20260503225003 25 9 6.4 14.5 0.00 0.00 0.00 39 1011.1
20260503224503 25 9 6.4 14.5 0.00 0.00 0.00 40 1011.1
20260503224001 26 348 8.0 14.5 0.00 0.00 0.00 38 1011.1
20260503223505 26 303 4.8 11.3 0.00 0.00 0.00 39 1011.2
20260503223006 25 275 3.2 11.3 0.00 0.00 0.00 39 1011.2
20260503222505 25 352 3.2 11.3 0.00 0.00 0.00 38 1011.3
20260503222004 25 333 3.2 9.7 0.00 0.00 0.00 40 1011.4
20260503221508 25 255 3.2 14.5 0.00 0.00 0.00 40 1011.5
20260503221013 25 290 4.8 14.5 0.00 0.00 0.00 39 1011.6
20260503220507 25 262 1.6 9.7 0.00 0.00 0.00 40 1011.5
20260503220036 25 252 4.8 9.7 0.00 0.00 0.00 40 1011.6
20260503215507 25 200 4.8 14.5 0.00 0.00 0.00 41 1011.6
20260503215006 25 243 4.8 14.5 0.00 0.00 0.00 40 1011.7
20260503214515 25 294 3.2 12.9 0.00 0.00 0.00 40 1011.7
20260503214003 25 289 4.8 12.9 0.00 0.00 0.00 40 1011.8
20260503213503 25 300 6.4 12.9 0.00 0.00 0.00 40 1011.8
20260503213008 25 294 3.2 11.3 0.00 0.00 0.00 40 1011.9
20260503212504 25 309 4.8 12.9 0.00 0.00 0.00 41 1011.9
20260503212003 25 262 6.4 12.9 0.00 0.00 0.00 43 1012.0
20260503211507 25 352 4.8 12.9 0.00 0.00 0.00 41 1012.0
20260503211004 25 44 3.2 9.7 0.00 0.00 0.00 42 1012.0
20260503210506 25 123 4.8 12.9 0.00 0.00 0.00 42 1012.1
20260503210013 25 281 3.2 14.5 0.00 0.00 0.00 41 1012.1
20260503205507 25 340 6.4 14.5 0.00 0.00 0.00 41 1012.2
20260503205008 24 352 6.4 12.9 0.00 0.00 0.00 42 1012.2
20260503204516 25 308 6.4 12.9 0.00 0.00 0.00 40 1012.2
20260503204009 25 300 3.2 12.9 0.00 0.00 0.00 43 1012.3
20260503203506 25 352 4.8 12.9 0.00 0.00 0.00 43 1012.4
20260503203027 25 69 4.8 12.9 0.00 0.00 0.00 42 1012.4
20260503202504 25 299 4.8 12.9 0.00 0.00 0.00 43 1012.4
20260503202004 25 15 3.2 12.9 0.00 0.00 0.00 44 1012.5
20260503201508 24 18 4.8 12.9 0.00 0.00 0.00 43 1012.6
20260503201006 24 271 3.2 12.9 0.00 0.00 0.00 46 1012.6
20260503200503 23 298 4.8 12.9 0.00 0.00 0.00 45 1012.6
20260503200011 23 39 3.2 12.9 0.00 0.00 0.00 47 1012.8
20260503195505 24 46 4.8 11.3 0.00 0.00 0.00 46 1012.8
20260503195007 24 325 3.2 11.3 0.00 0.00 0.00 47 1012.8
20260503194517 23 28 6.4 11.3 0.00 0.00 0.00 46 1012.8
20260503194007 23 306 6.4 12.9 0.00 0.00 0.00 46 1013.0
20260503193508 23 266 4.8 12.9 0.00 0.00 0.00 47 1013.1
20260503193021 23 302 4.8 9.7 0.00 0.00 0.00 46 1013.1
20260503192506 23 339 4.8 14.5 0.00 0.00 0.00 47 1013.1
20260503192007 23 17 6.4 14.5 0.00 0.00 0.00 47 1013.2
20260503191521 23 266 3.2 12.9 0.00 0.00 0.00 49 1013.2
20260503191007 23 9 3.2 11.3 0.00 0.00 0.00 48 1013.3
20260503190504 23 360 4.8 11.3 0.00 0.00 0.00 48 1013.4
20260503190007 23 245 1.6 12.9 0.00 0.00 0.00 47 1013.5
20260503185503 23 288 3.2 12.9 0.00 0.00 0.00 50 1013.5
20260503185004 23 9 1.6 12.9 0.00 0.00 0.00 48 1013.5